User: anonymous   Login
Location: Unspecified
(0.0000°N, 0.0000°E)
Time: 22:08:37
(UTC+00:00)
Language:

COSMOS 2468 - Orbit

View from above orbital plane
View from above orbital plane
View from above satellite
View from above satellite

Ground track
Ground track

The orbit data is extracted from the following two-line orbital elements,

1 37154U 10043C   17018.49581768  .00000028  00000-0  12970-3 0  9995
2 37154  82.4615  53.7944 0013608 241.3556 118.6157 12.43629788288742
Epoch (UTC): 18 January 2017 11:53:58
Eccentricity: 0.0013608
inclination: 82.4615°
perigee height: 1480 km
apogee height: 1502 km
right ascension of ascending node: 53.7944°
argument of perigee: 241.3556°
revolutions per day: 12.43629788
mean anomaly at epoch: 118.6157°
orbit number at epoch: 28874

The dashed part of the orbit path shows where the satellite is in the earth's shadow,  

DLR